When you browse on this site, cookies collect data to enhance your experience and personalize the content and advertising you see.
Visit our Privacy Policy to learn more. By continuing to use the site, you agree to this use of cookies and data.
  • Em Portugal
  • Lista de países
  • Para 7 dias
  • Temperatura da água
  • Mapas de satélite
  • Mapa do tempo
  • Widgets de tempo
  • user-avatar
    Iniciar Sessão

    Previsão horária em Sarafovo

    Hoje, 22 Maio, Quarta-feira

    Tempo Temperatura Precipitação Vento Pressão Humidade
    00:00 +16°C° 0 mm 2 m/s 756 mmHg 81%
    01:00 +16°C° 0 mm 2 m/s 757 mmHg 82%
    02:00 +15°C° 0 mm 2 m/s 757 mmHg 83%
    03:00 +15°C° 0 mm 2 m/s 757 mmHg 83%
    04:00 +15°C° 0 mm 2 m/s 757 mmHg 83%
    05:00 +14°C° 0 mm 2 m/s 757 mmHg 83%
    06:00 +16°C° 0 mm 2 m/s 757 mmHg 77%
    07:00 +19°C° 0 mm 2 m/s 757 mmHg 71%
    08:00 +21°C° 0 mm 2 m/s 757 mmHg 65%
    09:00 +23°C° 0 mm 1 m/s 757 mmHg 59%
    10:00 +25°C° 0 mm 1 m/s 757 mmHg 54%
    11:00 +26°C° 0 mm 1 m/s 757 mmHg 48%
    12:00 +27°C° 0 mm 1 m/s 757 mmHg 47%
    13:00 +27°C° 0 mm 2 m/s 757 mmHg 47%
    14:00 +27°C° 0 mm 2 m/s 757 mmHg 46%
    15:00 +27°C° 0 mm 2 m/s 756 mmHg 49%
    16:00 +26°C° 0 mm 2 m/s 756 mmHg 52%
    17:00 +26°C° 0 mm 2 m/s 756 mmHg 55%
    18:00 +24°C° 0 mm 2 m/s 756 mmHg 61%
    19:00 +21°C° 0 mm 2 m/s 756 mmHg 66%
    20:00 +19°C° 0 mm 2 m/s 756 mmHg 72%
    21:00 +19°C° 0.1 mm 1 m/s 756 mmHg 75%
    22:00 +19°C° 0.1 mm 1 m/s 756 mmHg 78%
    23:00 +16°C° 0.1 mm 0 m/s 756 mmHg 81%

    Amanhã, 23 Maio, Quinta-feira

    Tempo Temperatura Precipitação Vento Pressão Humidade
    00:00 +18°C° 0.1 mm 1 m/s 756 mmHg 82%
    01:00 +18°C° 0.1 mm 1 m/s 756 mmHg 83%
    02:00 +16°C° 0.1 mm 1 m/s 756 mmHg 84%
    03:00 +16°C° 0 mm 1 m/s 756 mmHg 84%
    04:00 +16°C° 0 mm 2 m/s 756 mmHg 85%
    05:00 +16°C° 0 mm 2 m/s 756 mmHg 86%
    06:00 +18°C° 0 mm 2 m/s 756 mmHg 80%
    07:00 +20°C° 0 mm 2 m/s 756 mmHg 74%
    08:00 +21°C° 0 mm 2 m/s 756 mmHg 69%
    09:00 +24°C° 0 mm 2 m/s 756 mmHg 64%
    10:00 +25°C° 0 mm 2 m/s 756 mmHg 59%
    11:00 +26°C° 0 mm 2 m/s 756 mmHg 54%
    12:00 +27°C° 0.3 mm 2 m/s 756 mmHg 55%
    13:00 +27°C° 0.3 mm 2 m/s 756 mmHg 56%
    14:00 +27°C° 0.3 mm 1 m/s 755 mmHg 57%
    15:00 +27°C° 0.2 mm 1 m/s 755 mmHg 58%
    16:00 +26°C° 0.2 mm 1 m/s 755 mmHg 60%
    17:00 +26°C° 0.2 mm 1 m/s 755 mmHg 61%
    18:00 +24°C° 0 mm 1 m/s 755 mmHg 67%
    19:00 +22°C° 0 mm 1 m/s 755 mmHg 73%
    20:00 +20°C° 0 mm 1 m/s 755 mmHg 79%
    21:00 +20°C° 0.3 mm 1 m/s 755 mmHg 82%
    22:00 +19°C° 0.3 mm 1 m/s 755 mmHg 84%
    23:00 +18°C° 0.3 mm 1 m/s 755 mmHg 87%

    Depois de amanhã, 24 Maio, Sexta-feira

    Tempo Temperatura Precipitação Vento Pressão Humidade
    00:00 +18°C° 0.3 mm 1 m/s 755 mmHg 88%
    01:00 +16°C° 0.3 mm 1 m/s 755 mmHg 89%
    02:00 +16°C° 0.3 mm 2 m/s 754 mmHg 90%
    03:00 +16°C° 0.1 mm 2 m/s 754 mmHg 90%
    04:00 +15°C° 0.1 mm 2 m/s 754 mmHg 90%
    05:00 +15°C° 0.1 mm 2 m/s 754 mmHg 89%
    06:00 +16°C° 0.2 mm 2 m/s 754 mmHg 86%
    07:00 +18°C° 0.2 mm 2 m/s 754 mmHg 82%
    08:00 +19°C° 0.2 mm 2 m/s 754 mmHg 79%
    09:00 +20°C° 0.7 mm 2 m/s 754 mmHg 77%
    10:00 +20°C° 0.7 mm 2 m/s 754 mmHg 75%
    11:00 +21°C° 0.7 mm 2 m/s 754 mmHg 73%
    12:00 +21°C° 0.1 mm 2 m/s 754 mmHg 69%
    13:00 +23°C° 0.1 mm 2 m/s 754 mmHg 66%
    14:00 +24°C° 0.1 mm 2 m/s 753 mmHg 62%
    15:00 +23°C° 0 mm 2 m/s 753 mmHg 65%
    16:00 +23°C° 0 mm 1 m/s 753 mmHg 67%
    17:00 +23°C° 0 mm 1 m/s 753 mmHg 69%
    18:00 +21°C° 0.1 mm 1 m/s 753 mmHg 75%
    19:00 +20°C° 0.1 mm 1 m/s 753 mmHg 81%
    20:00 +19°C° 0.1 mm 1 m/s 753 mmHg 87%
    21:00 +18°C° 0.6 mm 1 m/s 753 mmHg 88%
    22:00 +18°C° 0.6 mm 1 m/s 753 mmHg 89%
    23:00 +18°C° 0.6 mm 1 m/s 753 mmHg 90%

    25 Maio, Sábado

    Tempo Temperatura Precipitação Vento Pressão Humidade
    00:00 +17°C° 0 mm 2 m/s 753 mmHg 90%
    01:00 +16°C° 0 mm 2 m/s 753 mmHg 90%
    02:00 +16°C° 0 mm 2 m/s 753 mmHg 91%
    03:00 +16°C° 0 mm 3 m/s 753 mmHg 90%
    04:00 +16°C° 0 mm 3 m/s 753 mmHg 90%
    05:00 +14°C° 0 mm 3 m/s 753 mmHg 89%
    06:00 +15°C° 0.4 mm 4 m/s 754 mmHg 86%
    07:00 +17°C° 0.4 mm 4 m/s 754 mmHg 82%
    08:00 +17°C° 0.4 mm 5 m/s 755 mmHg 79%
    09:00 +19°C° 0.1 mm 5 m/s 755 mmHg 74%
    10:00 +21°C° 0.1 mm 5 m/s 755 mmHg 70%
    11:00 +22°C° 0.1 mm 5 m/s 755 mmHg 65%
    12:00 +23°C° 0.4 mm 4 m/s 755 mmHg 66%
    13:00 +24°C° 0.4 mm 3 m/s 755 mmHg 66%
    14:00 +24°C° 0.4 mm 3 m/s 755 mmHg 66%
    15:00 +24°C° 0.5 mm 2 m/s 755 mmHg 68%
    16:00 +24°C° 0.5 mm 2 m/s 755 mmHg 69%
    17:00 +24°C° 0.5 mm 2 m/s 755 mmHg 70%
    18:00 +21°C° 0.1 mm 2 m/s 755 mmHg 75%
    19:00 +20°C° 0.1 mm 2 m/s 756 mmHg 79%
    20:00 +18°C° 0.1 mm 2 m/s 756 mmHg 83%
    21:00 +18°C° 0 mm 2 m/s 756 mmHg 84%
    22:00 +17°C° 0 mm 2 m/s 757 mmHg 86%
    23:00 +17°C° 0 mm 2 m/s 757 mmHg 87%

    26 Maio, Domingo

    Tempo Temperatura Precipitação Vento Pressão Humidade
    00:00 +16°C° 0 mm 2 m/s 757 mmHg 87%
    01:00 +16°C° 0 mm 3 m/s 757 mmHg 88%
    02:00 +16°C° 0 mm 3 m/s 757 mmHg 88%
    03:00 +16°C° 0 mm 3 m/s 757 mmHg 88%
    04:00 +14°C° 0 mm 3 m/s 757 mmHg 88%
    05:00 +14°C° 0 mm 3 m/s 757 mmHg 88%
    06:00 +17°C° 0 mm 3 m/s 758 mmHg 82%
    07:00 +19°C° 0 mm 2 m/s 758 mmHg 76%
    08:00 +21°C° 0 mm 2 m/s 758 mmHg 70%
    09:00 +24°C° 0 mm 2 m/s 758 mmHg 64%
    10:00 +25°C° 0 mm 2 m/s 758 mmHg 58%
    11:00 +27°C° 0 mm 1 m/s 758 mmHg 53%
    12:00 +27°C° 0 mm 2 m/s 758 mmHg 52%
    13:00 +27°C° 0 mm 2 m/s 758 mmHg 52%
    14:00 +28°C° 0 mm 3 m/s 757 mmHg 51%
    15:00 +27°C° 0 mm 3 m/s 757 mmHg 53%
    16:00 +27°C° 0 mm 3 m/s 757 mmHg 56%
    17:00 +26°C° 0 mm 3 m/s 757 mmHg 58%
    18:00 +25°C° 0 mm 3 m/s 757 mmHg 63%
    19:00 +23°C° 0 mm 2 m/s 757 mmHg 68%
    20:00 +20°C° 0 mm 2 m/s 757 mmHg 73%
    21:00 +20°C° 0 mm 2 m/s 757 mmHg 76%
    22:00 +19°C° 0 mm 2 m/s 757 mmHg 78%
    23:00 +19°C° 0 mm 2 m/s 757 mmHg 81%

    27 Maio, Segunda-feira

    Tempo Temperatura Precipitação Vento Pressão Humidade
    00:00 +18°C° 0 mm 2 m/s 757 mmHg 81%
    01:00 +18°C° 0 mm 2 m/s 757 mmHg 81%
    02:00 +18°C° 0 mm 2 m/s 757 mmHg 82%
    03:00 +18°C° 0.1 mm 2 m/s 757 mmHg 82%
    04:00 +18°C° 0.1 mm 2 m/s 757 mmHg 82%
    05:00 +18°C° 0.1 mm 2 m/s 757 mmHg 83%
    06:00 +19°C° 0 mm 2 m/s 757 mmHg 78%
    07:00 +21°C° 0 mm 2 m/s 757 mmHg 74%
    08:00 +23°C° 0 mm 2 m/s 758 mmHg 70%
    09:00 +25°C° 0 mm 2 m/s 758 mmHg 63%
    10:00 +26°C° 0 mm 1 m/s 758 mmHg 57%
    11:00 +28°C° 0 mm 1 m/s 758 mmHg 50%
    12:00 +29°C° 0 mm 1 m/s 758 mmHg 48%
    13:00 +29°C° 0 mm 1 m/s 758 mmHg 45%
    14:00 +30°C° 0 mm 1 m/s 758 mmHg 43%
    15:00 +29°C° 0 mm 2 m/s 757 mmHg 47%
    16:00 +29°C° 0 mm 3 m/s 757 mmHg 51%
    17:00 +28°C° 0 mm 3 m/s 757 mmHg 55%
    18:00 +26°C° 0 mm 3 m/s 757 mmHg 61%
    19:00 +24°C° 0 mm 3 m/s 758 mmHg 67%
    20:00 +21°C° 0 mm 2 m/s 758 mmHg 73%
    21:00 +20°C° 0 mm 2 m/s 758 mmHg 76%
    22:00 +21°C° 0 mm 1 m/s 758 mmHg 79%
    23:00 +18°C° 0 mm 0 m/s 759 mmHg 82%
    Mostrar mais